ONEWEB-0150

Last updated on Sun Apr 25 2021 00:02:03 GMT+0000 (Coordinated Universal Time)

1 48047U 21025F 21114.58336806 -.01072102 00000-0 -47343-1 0 9998 2 48047 87.4210 339.3482 0009605 131.9333 65.4379 15.24692576 1789

Satellite not in orbit